Location: Newark
(43.4306°N, 0.3089°E)
Time: 02:23:51
(UTC+00:00)

Transit 4A - Visible Passes

Search period start: 25 August 2019 00:00
Search period end: 04 September 2019 00:00
Orbit: 863 x 981 km, 66.8° (Epoch: 24 August)

Date Brightness Start Highest point End Pass type
(mag) Time Alt. Az. Time Alt. Az. Time Alt. Az.
25 Aug 9.1 01:26:45 10° NNW 01:32:32 38° NE 01:38:07 10° ESE visible
25 Aug 8.2 03:13:12 10° NW 03:18:56 42° WSW 03:21:51 25° SSW visible
25 Aug 10.8 20:12:01 10° NW 20:14:48 13° NNW 20:17:35 10° N visible
25 Aug 10.5 23:50:48 10° N 23:54:08 15° NNE 23:57:25 10° ENE visible
26 Aug 8.5 01:35:58 10° NNW 01:42:03 53° NE 01:44:19 35° ESE visible
26 Aug 8.7 03:22:57 10° NW 03:27:40 28° W 03:27:40 28° W visible
26 Aug 11.0 20:23:43 10° NNW 20:24:48 10° NNW 20:25:52 10° N visible
26 Aug 10.2 23:59:44 10° N 00:03:59 18° NE 00:08:05 10° ENE visible
27 Aug 7.9 01:45:16 10° NNW 01:51:28 75° ENE 01:51:28 75° ENE visible
27 Aug 9.5 03:33:02 10° WNW 03:34:52 15° WNW 03:34:52 15° WNW visible
28 Aug 9.8 00:08:48 10° NNW 00:13:45 24° NE 00:15:46 20° ENE visible
28 Aug 8.3 01:54:38 10° NNW 01:59:11 50° NW 01:59:11 50° NW visible
28 Aug 10.7 22:34:10 10° NNE 22:34:50 10° NNE 22:35:29 10° NNE visible
29 Aug 9.3 00:17:55 10° NNW 00:23:25 31° NE 00:23:46 31° NE visible
29 Aug 9.1 02:04:07 10° NW 02:07:12 29° NW 02:07:12 29° NW visible
29 Aug 10.6 19:02:01 10° WNW 19:05:30 15° NNW 19:08:58 10° N visible
29 Aug 10.4 22:42:15 10° N 22:44:49 13° NNE 22:47:22 10° NE visible
30 Aug 9.0 00:27:07 10° NNW 00:31:59 40° NNE 00:31:59 40° NNE visible
30 Aug 9.7 02:13:44 10° NW 02:15:26 18° NW 02:15:26 18° NW visible
30 Aug 10.7 19:13:10 10° NW 19:15:26 12° NNW 19:17:42 10° N visible
30 Aug 10.2 22:51:04 10° N 22:54:44 16° NNE 22:56:53 13° NE visible
31 Aug 9.0 00:36:22 10° NNW 00:40:20 39° N 00:40:20 39° N visible
31 Aug 10.1 02:23:35 10° NW 02:23:48 11° NW 02:23:48 11° NW visible
31 Aug 9.8 23:00:04 10° N 23:04:33 20° NE 23:05:20 20° NE visible
01 Sep 9.3 00:45:41 10° NNW 00:48:48 31° NNW 00:48:48 31° NNW visible
01 Sep 9.6 23:09:08 10° NNW 23:13:53 26° NE 23:13:53 26° NE visible
02 Sep 9.6 00:55:05 10° NW 00:57:21 23° NW 00:57:21 23° NW visible
02 Sep 10.4 21:33:56 10° N 21:35:29 11° NNE 21:37:01 10° NE visible
02 Sep 9.4 23:18:17 10° NNW 23:22:29 31° NNE 23:22:29 31° NNE visible
03 Sep 10.0 01:04:36 10° NW 01:05:57 17° NW 01:05:57 17° NW visible
03 Sep 10.2 21:42:28 10° N 21:45:26 14° NNE 21:47:41 11° NE visible
03 Sep 9.3 23:27:29 10° NNW 23:31:09 33° N 23:31:09 33° N visible
